Regional Weather Roundup
Issued by NWS Northern Indiana

Home | Current Version | Previous Version | Graphics & Text | Print | Product List | Glossary On
Versions: 1 2 3 4 5 6 7 8 9 10 11 12 13 14 15 16 17 18 19 20 21 22 23 24 25 26 27 28 29 30 31 32 33 34 35 36 37 38 39 40 41 42 43 44 45 46 47 48 49 50
000
ASUS43 KIWX 221510
RWRIWX

KIWX WEATHER ROUNDUP
NATIONAL WEATHER SERVICE NORTHERN INDIANA
1100 AM EDT THU JUN 22 2017

NOTE: "FAIR" INDICATES FEW OR NO CLOUDS BELOW 12,000 FEET WITH NO
SIGNIFICANT WEATHER AND/OR OBSTRUCTIONS TO VISIBILITY.

* THESE STATIONS ARE NOT UNDER NWS QUALITY CONTROL. THEY ALSO MAY NOT
  REPORT WEATHER SUCH AS PRECIPITATION OR FOG.

INZ001>027-221600-
NORTHERN INDIANA

CITY           SKY/WX    TMP DP  RH WIND       PRES   REMARKS
GARY*          PTSUNNY   77  68  73 S6        29.88F
VALPARAISO     PTSUNNY   81  71  71 S13G21    29.89F
MICHIGAN CITY* MOSUNNY   77  68  73 SW8       29.89F
LAPORTE*       CLOUDY    77  69  78 SW10G16   29.91F
KNOX*          PTSUNNY   79  59  50 SW9       29.91F
SOUTH BEND     MOSUNNY   74  70  87 SW10      29.91F
ELKHART*       CLOUDY    75  68  78 SW8       29.92F
GOSHEN         PTSUNNY   76  67  73 SW8       29.93F
MONTICELLO*    CLOUDY    77  70  78 SW9       29.93S
LOGANSPORT*    CLOUDY    77  70  78 SW9       29.95S
ROCHESTER*     MOSUNNY   79  70  73 SW10      29.95S
WARSAW*        CLOUDY    77  68  73 SW8       29.94S
AUBURN*        CLOUDY    75  66  73 SW3       29.96S
FORT WAYNE     LGT RAIN  76  68  76 SW12      29.96F
PERU/GRISSOM   CLOUDY    78  71  78 SW13      29.94S
MARION*        MOSUNNY   79  70  73 S13       29.96F

$$
INZ028>050-221600-
CENTRAL INDIANA

CITY           SKY/WX    TMP DP  RH WIND       PRES   REMARKS
LAFAYETTE      CLOUDY    78  70  76 SW12G18   29.93S
KOKOMO*        CLOUDY    80  71  74 SW13      29.96F
MUNCIE*        MOSUNNY   81  69  67 SW12      29.97F
INDIANAPOLIS   PTSUNNY   80  70  71 SW17      29.96F

$$
MIZ043>046-050>051-056>058-064>065-071>073-077>080-221600-
SOUTHWEST LOWER MICHIGAN

CITY           SKY/WX    TMP DP  RH WIND       PRES   REMARKS
BATTLE CREEK   CLOUDY    79  68  69 SW16      29.90F
BENTON HARBOR  CLOUDY    82  65  56 SW13G20   29.87F
COLDWATER*     CLOUDY    74  68  80 SW8       29.93F
HILLSDALE*     CLOUDY    73  64  73 SW7       29.94S
HOLLAND        CLOUDY    82  67  60 SW16G28   29.85F
GRAND RAPIDS   CLOUDY    82  68  62 SW17G23   29.84F
KALAMAZOO      CLOUDY    79  67  66 SW12      29.90F
STURGIS*       CLOUDY    73  69  85 SW5       29.93F
THREE RIVERS*  DRIZZLE   74  68  80 S6        29.92F

$$
OHZ001>008-015>018-024>025-221600-
NORTHWEST OHIO

CITY           SKY/WX    TMP DP  RH WIND       PRES   REMARKS
WAUSEON*       PTSUNNY   75  70  83 SW10G16   29.94S
DEFIANCE       CLOUDY    75  67  76 SW7       29.95S
FINDLAY        PTSUNNY   79  66  64 SW12      29.96S
TOLEDO EXPRESS LGT RAIN  75  70  84 SW9       29.93F
TOLEDO METCALF PTSUNNY   78  68  71 SW13      29.94S
LIMA           CLOUDY    81  71  71 SW10      29.97F

$$
AND FOR LAKE MICHIGAN COASTAL AND OPEN LAKE BUOY OBSERVATIONS

STATION/POSITION TEMP    WIND        PRES    VSBY  WAVE
                 AIR SEA DIR/SP/G                  HT/PER
                 (F)     (DEG/KT/KT) (MB)    (MI)  (FT/S)
CALUMET HARBOR    78     190/  9/ 13 1010.7F
MICHIGAN CITY     75     190/ 13/ 14   N/A
BURNS HARBOR      77     200/ 15/ 22 1012.2F
SOUTH LAKE BUOY   67 61  180/ 16/ 19 1009.0F         2/ 4
4 MI NW BRIDGMAN  73 69  210/ 12/ 14 1011.2          2/ 3
MICHIGAN CITY     73 68  200/ 12/ 14   N/A           1/ 3

$$
&&



USA.gov is the U.S. government's official web portal to all federal, state and local government web resources and services.